When you browse on this site, cookies collect data to enhance your experience and personalize the content and advertising you see.
Visit our Privacy Policy to learn more. By continuing to use the site, you agree to this use of cookies and data.
  • In Hungary
  • List of Countries
  • For 7 days
  • Water Temperature
  • Satellite Maps
  • Weather Map
  • News
  • Weather Widgets
  • user-avatar
    Login

    Hourly Weather Aguilas

    Today, 26 March, Tuesday

    Time Temperature Precipitation Wind Pressure Humidity
    00:00 +14°C° 0 mm 2 mps 762 mmHg 62%
    01:00 +13°C° 0 mm 3 mps 762 mmHg 61%
    02:00 +13°C° 0 mm 3 mps 762 mmHg 60%
    03:00 +13°C° 0 mm 3 mps 761 mmHg 59%
    04:00 +13°C° 0 mm 4 mps 761 mmHg 59%
    05:00 +13°C° 0 mm 4 mps 762 mmHg 59%
    06:00 +13°C° 0 mm 5 mps 762 mmHg 59%
    07:00 +14°C° 0 mm 6 mps 762 mmHg 57%
    08:00 +16°C° 0 mm 8 mps 762 mmHg 55%
    09:00 +17°C° 0 mm 9 mps 763 mmHg 54%
    10:00 +17°C° 0 mm 9 mps 763 mmHg 58%
    11:00 +16°C° 0 mm 10 mps 763 mmHg 61%
    12:00 +16°C° 0 mm 10 mps 763 mmHg 65%
    13:00 +16°C° 0 mm 11 mps 763 mmHg 61%
    14:00 +17°C° 0 mm 11 mps 763 mmHg 57%
    15:00 +17°C° 0 mm 11 mps 763 mmHg 53%
    16:00 +16°C° 0 mm 11 mps 763 mmHg 53%
    17:00 +14°C° 0 mm 11 mps 763 mmHg 54%
    18:00 +13°C° 0 mm 10 mps 764 mmHg 55%
    19:00 +12°C° 0 mm 9 mps 764 mmHg 58%
    20:00 +11°C° 0 mm 8 mps 765 mmHg 62%
    21:00 +10°C° 0 mm 7 mps 766 mmHg 66%
    22:00 +10°C° 0 mm 7 mps 766 mmHg 67%
    23:00 +10°C° 0 mm 7 mps 766 mmHg 67%

    Tomorrow, 27 March, Wednesday

    Time Temperature Precipitation Wind Pressure Humidity
    00:00 +9°C° 0 mm 7 mps 766 mmHg 68%
    01:00 +9°C° 0 mm 7 mps 766 mmHg 69%
    02:00 +9°C° 0 mm 6 mps 766 mmHg 70%
    03:00 +9°C° 0 mm 6 mps 766 mmHg 71%
    04:00 +8°C° 0 mm 6 mps 766 mmHg 72%
    05:00 +8°C° 0 mm 6 mps 766 mmHg 72%
    06:00 +8°C° 0 mm 7 mps 766 mmHg 73%
    07:00 +10°C° 0 mm 7 mps 766 mmHg 64%
    08:00 +11°C° 0 mm 8 mps 766 mmHg 54%
    09:00 +13°C° 0 mm 9 mps 767 mmHg 45%
    10:00 +15°C° 0 mm 9 mps 767 mmHg 42%
    11:00 +16°C° 0 mm 10 mps 766 mmHg 40%
    12:00 +17°C° 0 mm 10 mps 766 mmHg 38%
    13:00 +17°C° 0 mm 10 mps 766 mmHg 39%
    14:00 +17°C° 0 mm 10 mps 766 mmHg 40%
    15:00 +17°C° 0 mm 10 mps 766 mmHg 42%
    16:00 +16°C° 0 mm 10 mps 766 mmHg 46%
    17:00 +15°C° 0 mm 9 mps 766 mmHg 51%
    18:00 +13°C° 0 mm 8 mps 767 mmHg 56%
    19:00 +12°C° 0 mm 7 mps 767 mmHg 62%
    20:00 +11°C° 0 mm 6 mps 768 mmHg 67%
    21:00 +10°C° 0 mm 6 mps 769 mmHg 73%
    22:00 +10°C° 0 mm 5 mps 769 mmHg 72%
    23:00 +10°C° 0 mm 5 mps 769 mmHg 71%

    Day after tomorrow, 28 March, Thursday

    Time Temperature Precipitation Wind Pressure Humidity
    00:00 +10°C° 0 mm 5 mps 769 mmHg 70%
    01:00 +10°C° 0 mm 5 mps 769 mmHg 70%
    02:00 +9°C° 0 mm 5 mps 769 mmHg 70%
    03:00 +10°C° 0 mm 4 mps 769 mmHg 70%
    04:00 +10°C° 0 mm 4 mps 769 mmHg 69%
    05:00 +8°C° 0 mm 5 mps 769 mmHg 68%
    06:00 +8°C° 0 mm 5 mps 769 mmHg 67%
    07:00 +10°C° 0 mm 5 mps 769 mmHg 60%
    08:00 +13°C° 0 mm 6 mps 769 mmHg 52%
    09:00 +15°C° 0 mm 6 mps 770 mmHg 45%
    10:00 +16°C° 0 mm 7 mps 769 mmHg 42%
    11:00 +17°C° 0 mm 7 mps 769 mmHg 40%
    12:00 +18°C° 0 mm 8 mps 769 mmHg 37%
    13:00 +18°C° 0 mm 8 mps 769 mmHg 37%
    14:00 +18°C° 0 mm 9 mps 768 mmHg 38%
    15:00 +18°C° 0 mm 9 mps 768 mmHg 39%
    16:00 +17°C° 0 mm 8 mps 768 mmHg 43%
    17:00 +16°C° 0 mm 8 mps 768 mmHg 48%
    18:00 +15°C° 0 mm 7 mps 768 mmHg 52%
    19:00 +14°C° 0 mm 7 mps 769 mmHg 58%
    20:00 +13°C° 0 mm 6 mps 769 mmHg 64%
    21:00 +12°C° 0 mm 5 mps 770 mmHg 70%
    22:00 +12°C° 0 mm 5 mps 770 mmHg 71%
    23:00 +12°C° 0 mm 5 mps 770 mmHg 72%

    29 March, Friday

    Time Temperature Precipitation Wind Pressure Humidity
    00:00 +12°C° 0 mm 4 mps 770 mmHg 72%
    01:00 +12°C° 0 mm 5 mps 769 mmHg 72%
    02:00 +12°C° 0 mm 5 mps 769 mmHg 72%
    03:00 +12°C° 0 mm 5 mps 769 mmHg 73%
    04:00 +12°C° 0 mm 5 mps 769 mmHg 73%
    05:00 +12°C° 0 mm 5 mps 769 mmHg 74%
    06:00 +12°C° 0 mm 5 mps 769 mmHg 75%
    07:00 +13°C° 0 mm 5 mps 769 mmHg 70%
    08:00 +14°C° 0 mm 6 mps 769 mmHg 65%
    09:00 +14°C° 0 mm 6 mps 769 mmHg 60%
    10:00 +15°C° 0 mm 7 mps 769 mmHg 58%
    11:00 +15°C° 0 mm 7 mps 768 mmHg 57%
    12:00 +16°C° 0 mm 7 mps 768 mmHg 55%
    13:00 +16°C° 0 mm 7 mps 768 mmHg 54%
    14:00 +17°C° 0 mm 8 mps 767 mmHg 52%
    15:00 +18°C° 0 mm 8 mps 766 mmHg 51%
    16:00 +17°C° 0 mm 8 mps 766 mmHg 57%
    17:00 +16°C° 0 mm 8 mps 766 mmHg 63%
    18:00 +15°C° 0 mm 8 mps 766 mmHg 69%
    19:00 +14°C° 0 mm 7 mps 767 mmHg 74%
    20:00 +12°C° 0 mm 7 mps 767 mmHg 78%
    21:00 +13°C° 0 mm 6 mps 768 mmHg 82%
    22:00 +13°C° 0 mm 6 mps 768 mmHg 81%
    23:00 +13°C° 0 mm 6 mps 768 mmHg 80%

    30 March, Saturday

    Time Temperature Precipitation Wind Pressure Humidity
    00:00 +13°C° 0 mm 6 mps 767 mmHg 78%
    01:00 +13°C° 0 mm 6 mps 767 mmHg 77%
    02:00 +13°C° 0 mm 5 mps 767 mmHg 76%
    03:00 +13°C° 0 mm 5 mps 766 mmHg 75%
    04:00 +12°C° 0 mm 5 mps 766 mmHg 75%
    05:00 +12°C° 0 mm 5 mps 766 mmHg 76%
    06:00 +12°C° 0 mm 5 mps 766 mmHg 76%
    07:00 +13°C° 0 mm 6 mps 766 mmHg 72%
    08:00 +13°C° 0 mm 6 mps 766 mmHg 68%
    09:00 +14°C° 0 mm 7 mps 766 mmHg 64%
    10:00 +15°C° 0 mm 7 mps 766 mmHg 63%
    11:00 +15°C° 0 mm 7 mps 765 mmHg 62%
    12:00 +16°C° 0 mm 8 mps 765 mmHg 61%
    13:00 +16°C° 0 mm 7 mps 764 mmHg 64%
    14:00 +16°C° 0 mm 7 mps 763 mmHg 67%
    15:00 +15°C° 0 mm 7 mps 762 mmHg 69%
    16:00 +15°C° 0 mm 7 mps 762 mmHg 71%
    17:00 +15°C° 0 mm 8 mps 762 mmHg 73%
    18:00 +15°C° 0 mm 8 mps 762 mmHg 74%
    19:00 +15°C° 0 mm 7 mps 762 mmHg 77%
    20:00 +14°C° 0 mm 6 mps 762 mmHg 80%
    21:00 +14°C° 0 mm 5 mps 763 mmHg 83%
    22:00 +14°C° 0.2 mm 5 mps 762 mmHg 82%
    23:00 +14°C° 0.2 mm 5 mps 762 mmHg 81%

    31 March, Sunday

    Time Temperature Precipitation Wind Pressure Humidity
    00:00 +14°C° 0.2 mm 4 mps 762 mmHg 80%
    01:00 +14°C° 0.4 mm 5 mps 761 mmHg 81%
    02:00 +14°C° 0.4 mm 5 mps 761 mmHg 83%
    03:00 +14°C° 0.4 mm 6 mps 760 mmHg 85%
    04:00 +14°C° 0.1 mm 6 mps 760 mmHg 85%
    05:00 +13°C° 0.1 mm 6 mps 759 mmHg 85%
    06:00 +13°C° 0.1 mm 5 mps 759 mmHg 86%
    07:00 +14°C° 0.2 mm 6 mps 759 mmHg 85%
    08:00 +14°C° 0.2 mm 6 mps 759 mmHg 84%
    09:00 +14°C° 0.2 mm 6 mps 759 mmHg 83%
    10:00 +14°C° 0.2 mm 6 mps 759 mmHg 83%
    11:00 +15°C° 0.2 mm 5 mps 759 mmHg 83%
    12:00 +15°C° 0.2 mm 5 mps 759 mmHg 83%
    13:00 +15°C° 0 mm 5 mps 759 mmHg 79%
    14:00 +17°C° 0 mm 4 mps 758 mmHg 76%
    15:00 +17°C° 0 mm 4 mps 758 mmHg 72%
    16:00 +17°C° 0.1 mm 4 mps 758 mmHg 73%
    17:00 +17°C° 0.1 mm 3 mps 759 mmHg 73%
    18:00 +17°C° 0.1 mm 3 mps 759 mmHg 74%
    19:00 +16°C° 0 mm 3 mps 759 mmHg 76%
    20:00 +16°C° 0 mm 2 mps 760 mmHg 77%
    21:00 +15°C° 0 mm 2 mps 761 mmHg 79%
    22:00 +15°C° 0 mm 2 mps 761 mmHg 78%
    23:00 +15°C° 0 mm 1 mps 761 mmHg 77%
    Show more